Oak Ridge, TN

3:04 PM EST on February 19, 2017 (GMT -0500)
Oak Ridge

Weather History for KOQT - March, 2013

Change the Weather History Date:

Saturday, March 16, 2013

  Actual Average (KTYS) Record (KTYS)
Temperature  
Mean Temperature 65 °F -  
Max Temperature 78 °F 60 °F 81 °F (1942)
Min Temperature 53 °F 39 °F 18 °F (1890)
Growing Degree Days 15 (Base 50)    
Moisture  
Dew Point 44 °F    
Average Humidity 48    
Maximum Humidity 69    
Minimum Humidity 31    
Precipitation  
Precipitation 0.00 in - - ()
Sea Level Pressure  
Sea Level Pressure 29.85 in    
Wind  
Wind Speed 4 mph (SW)    
Max Wind Speed 13 mph    
Max Gust Speed 25 mph    
Visibility 10 miles    
Events      
Averages and records for this station are not official NWS values.
T = Trace of Precipitation, MM = Missing Value Source: NWS Daily Summary

Daily Weather History Graph

Daily Weather History Graph

Search for Another Location

Airport or City:

Trip Planner

Search our weather history database for the weather conditions in past years. The results will help you decide how hot, cold, wet, or windy it might be!

Date:

Astronomy

Mar. 16, 2013 Rise Set
Actual Time 7:45 AM EDT 7:45 PM EDT
Civil Twilight 7:20 AM EDT 8:11 PM EDT
Nautical Twilight 6:50 AM EDT 8:40 PM EDT
Astronomical Twilight 6:20 AM EDT 9:10 PM EDT
Moon 10:24 AM EDT (3/16) No Moon Set
Length of Visible Light 12h 50m
Length of Day
11h 59m
Waxing Crescent, 23% of the Moon is Illuminated
Mar 16
Waxing Crescent
Mar 19
First Quarter
Mar 27
Full
Apr 3
Last Quarter
Apr 10
New

Hourly Weather History & Observations

Time (EDT) Temp. Dew Point Humidity Pressure Visibility Wind Dir Wind Speed Gust Speed Precip Events Conditions
12:53 AM 59.0 °F 42.1 °F 53% 29.90 in 10.0 mi WSW 3.5 mph - N/A   Clear
1:53 AM 57.0 °F 43.0 °F 59% 29.89 in 10.0 mi SW 3.5 mph - N/A   Scattered Clouds
2:53 AM 53.1 °F 43.0 °F 69% 29.89 in 10.0 mi SSW 3.5 mph - N/A   Overcast
3:53 AM 57.9 °F 42.1 °F 56% 29.86 in 10.0 mi Calm Calm - N/A   Clear
4:53 AM 55.9 °F 42.1 °F 60% 29.86 in 10.0 mi Calm Calm - N/A   Clear
5:53 AM 55.0 °F 41.0 °F 59% 29.86 in 10.0 mi Calm Calm - N/A   Clear
6:53 AM 53.1 °F 42.1 °F 66% 29.87 in 10.0 mi Calm Calm - N/A   Clear
7:53 AM 54.0 °F 41.0 °F 62% 29.87 in 10.0 mi SW 3.5 mph - N/A   Clear
8:53 AM 55.9 °F 42.1 °F 60% 29.88 in 10.0 mi SW 3.5 mph - N/A   Clear
9:53 AM 63.0 °F 42.1 °F 46% 29.87 in 10.0 mi SW 8.1 mph 17.3 mph N/A   Clear
10:53 AM 66.0 °F 43.0 °F 43% 29.86 in 10.0 mi Variable 6.9 mph 16.1 mph N/A   Clear
11:53 AM 69.1 °F 44.1 °F 40% 29.84 in 10.0 mi SSW 11.5 mph 19.6 mph N/A   Clear
12:53 PM 72.0 °F 45.0 °F 38% 29.82 in 10.0 mi SW 8.1 mph - N/A   Clear
1:53 PM 75.0 °F 45.0 °F 34% 29.81 in 10.0 mi SW 10.4 mph 19.6 mph N/A   Mostly Cloudy
2:53 PM 75.9 °F 45.0 °F 33% 29.79 in 10.0 mi SW 8.1 mph - N/A   Partly Cloudy
3:53 PM 77.0 °F 44.1 °F 31% 29.76 in 10.0 mi WSW 11.5 mph 18.4 mph N/A   Clear
4:53 PM 75.0 °F 45.0 °F 34% 29.77 in 10.0 mi WSW 9.2 mph 19.6 mph N/A   Mostly Cloudy
5:53 PM 75.0 °F 45.0 °F 34% 29.79 in 10.0 mi West 12.7 mph 25.3 mph N/A   Overcast
6:53 PM 73.9 °F 46.0 °F 37% 29.81 in 10.0 mi West 8.1 mph - N/A   Scattered Clouds
7:53 PM 72.0 °F 46.0 °F 40% 29.84 in 10.0 mi Variable 5.8 mph - N/A   Overcast
8:53 PM 70.0 °F 46.9 °F 44% 29.85 in 10.0 mi Calm Calm - N/A   Scattered Clouds
9:53 PM 64.0 °F 48.9 °F 58% 29.87 in 10.0 mi South 3.5 mph - N/A   Clear
10:53 PM 66.9 °F 46.0 °F 47% 29.88 in 10.0 mi WSW 4.6 mph - N/A   Overcast
11:53 PM 66.0 °F 46.0 °F 48% 29.89 in 10.0 mi Calm Calm - N/A   Overcast